SIILIN Weather Reports


Display with metric or nautical units.
time (UTC)temp
F
wind
direction
speed
MPH
gust
MPH
rain 1hr
in
rain 24hr
in
rain mn
in
humidity
%
barometer
mb
20260906070125 50 316 17.0 25.0 0.00 0.00 0.00 68 1006.3
20260906064455 50 327 15.0 20.0 0.00 0.00 0.00 69 1006.2
20260906062456 50 323 17.0 22.0 0.00 0.00 0.00 69 1006.2
20260906054455 49 318 16.0 20.0 0.00 0.00 0.00 77 1005.8
20260906052456 49 304 14.0 18.0 0.00 0.00 0.00 85 1005.6
20260906050456 49 307 13.0 17.0 0.00 0.00 0.00 84 1005.5
20260906044126 48 305 13.0 17.0 0.00 0.00 0.00 90 1005.4
20260906042126 48 302 13.0 17.0 0.00 0.00 0.00 90 1005.2
20260906034125 48 300 13.0 17.0 0.00 0.00 0.00 89 1004.9
20260906032455 49 304 13.0 16.0 0.00 0.00 0.00 87 1004.7
20260906030456 49 299 12.0 16.0 0.00 0.00 0.00 87 1004.6
20260906024456 49 302 13.0 16.0 0.00 0.00 0.00 82 1004.4
20260906022456 51 325 16.0 22.0 0.00 0.00 0.00 79 1004.1
20260906020456 51 342 21.0 26.0 0.00 0.00 0.00 78 1004.0
20260906014457 51 336 20.0 30.0 0.00 0.00 0.00 79 1003.8
20260906012455 51 337 22.0 27.0 0.00 0.00 0.00 79 1003.5
20260906010456 51 338 23.0 31.0 0.00 0.00 0.00 82 1003.3
20260906004457 52 342 23.0 31.0 0.00 0.00 0.00 80 1003.0
20260906002455 51 332 20.0 25.0 0.00 0.00 0.00 81 1002.8
20260906000125 51 321 14.0 20.0 0.00 0.00 0.00 86 1002.5
20260905234454 51 311 13.0 17.0 0.00 0.00 0.00 85 1002.5
20260905232454 51 313 15.0 19.0 0.00 0.00 0.00 86 1002.4
20260905230454 50 302 13.0 17.0 0.00 0.00 0.00 85 1002.2
20260905222454 51 330 17.0 21.0 0.00 0.00 0.00 87 1002.0
20260905220455 51 331 17.0 21.0 0.00 0.00 0.00 85 1001.8
20260905214455 51 329 17.0 23.0 0.00 0.00 0.00 83 1001.7
20260905212455 51 338 20.0 28.0 0.00 0.00 0.00 81 1001.5
20260905210454 52 341 19.0 27.0 0.00 0.00 0.00 81 1001.2
20260905204454 52 345 22.0 30.0 0.00 0.00 0.00 83 1000.8
20260905202124 51 327 17.0 26.0 0.00 0.00 0.00 89 1000.7
20260905200455 51 330 14.0 21.0 0.00 0.00 0.00 85 1000.6
20260905194124 53 312 13.0 19.0 0.00 0.00 0.00 86 1000.3
20260905192125 53 327 15.0 19.0 0.00 0.00 0.00 84 1000.3
20260905190125 54 345 22.0 29.0 0.00 0.00 0.00 80 1000.4
20260905184455 54 340 19.0 25.0 0.00 0.00 0.00 79 1000.1
20260905182454 55 343 21.0 28.0 0.00 0.00 0.00 78 999.8
20260905180452 55 342 20.0 26.0 0.00 0.00 0.00 77 999.7
20260905174451 55 344 21.0 26.0 0.00 0.00 0.00 75 999.4
20260905172452 56 341 20.0 23.0 0.00 0.00 0.00 74 999.1
20260905170453 56 339 20.0 24.0 0.00 0.00 0.00 77 998.8
20260905164454 57 346 19.0 23.0 0.00 0.00 0.00 77 998.5
20260905162452 57 345 17.0 22.0 0.00 0.00 0.00 76 998.2
20260905160453 56 10 17.0 23.0 0.00 0.00 0.00 83 998.0
20260905154452 58 337 16.0 29.0 0.00 0.00 0.00 76 997.7
20260905152454 58 346 15.0 19.0 0.00 0.00 0.00 74 997.5
20260905150453 57 350 14.0 18.0 0.00 0.00 0.00 78 997.3
20260905144453 56 358 23.0 27.0 0.00 0.00 0.00 82 997.2
20260905142453 59 336 6.0 11.0 0.00 0.00 0.00 74 996.8
20260905140123 58 22 7.0 11.0 0.00 0.00 0.00 80 996.5
20260905134452 57 32 10.0 12.0 0.00 0.00 0.00 85 996.5
20260905124453 58 297 8.0 11.0 0.00 0.00 0.00 73 996.3
20260905122123 58 304 10.0 13.0 0.00 0.00 0.00 75 996.2
20260905120452 59 313 9.0 12.0 0.00 0.00 0.00 68 996.0
20260905114453 58 321 9.0 11.0 0.00 0.00 0.00 74 996.0
20260905112125 58 330 12.0 14.0 0.00 0.00 0.00 71 995.8
20260905110452 58 313 11.0 14.0 0.00 0.00 0.00 73 995.7
20260905104453 58 306 10.0 13.0 0.00 0.00 0.00 67 995.6
20260905102453 58 303 10.0 14.0 0.00 0.00 0.00 68 995.5
20260905100452 58 308 11.0 13.0 0.00 0.00 0.00 66 995.4
20260905080450 55 353 6.0 7.0 0.00 0.00 0.00 79 994.9
20260905074451 55 4 4.0 6.0 0.00 0.00 0.00 84 994.8